Location: Vancouver
(49.2500°N, 123.1330°W)
Time: 05:32:21
(UTC-07:00)

deb Explorer IX - Visible Passes

Search period start: 22 October 2014 00:00
Search period end: 01 November 2014 00:00
Orbit: 559 x 1208 km, 38.8° (Epoch: 21 October)

Date Brightness Start Highest point End Pass type
(mag) Time Alt. Az. Time Alt. Az. Time Alt. Az.
22 Oct ? 06:15:15 10° SSW 06:19:23 20° SSE 06:23:04 10° ESE visible
23 Oct ? 04:27:35 11° SSE 04:27:54 11° SSE 04:29:13 10° SE visible
23 Oct ? 06:10:43 10° SW 06:15:18 22° SSE 06:19:21 10° ESE visible
24 Oct ? 04:24:02 14° SSE 04:24:02 14° SSE 04:26:31 10° SE visible
24 Oct ? 06:06:38 12° SW 06:11:07 25° S 06:15:27 10° ESE visible
25 Oct ? 04:20:19 16° SE 04:20:19 16° SE 04:23:00 10° ESE visible
25 Oct ? 06:02:54 15° SW 06:06:51 27° S 06:11:24 10° ESE visible
26 Oct ? 04:16:27 18° SE 04:16:27 18° SE 04:19:09 10° ESE visible
26 Oct ? 05:59:01 18° SW 06:02:29 29° S 06:07:12 10° ESE visible
27 Oct ? 04:12:26 19° SE 04:12:26 19° SE 04:15:04 10° ESE visible
27 Oct ? 05:55:00 21° SW 05:58:00 30° S 06:02:53 10° ESE visible
28 Oct ? 04:08:18 20° SE 04:08:18 20° SE 04:10:47 10° ESE visible
28 Oct ? 05:50:52 24° SW 05:53:25 31° S 05:58:25 10° ESE visible
29 Oct ? 04:04:04 20° SE 04:04:04 20° SE 04:06:21 10° ESE visible
29 Oct ? 05:46:37 26° SW 05:48:44 32° S 05:53:50 10° SE visible
30 Oct ? 03:59:43 19° SE 03:59:43 19° SE 04:01:47 10° ESE visible
30 Oct ? 05:42:16 28° SW 05:43:57 32° S 05:49:07 10° SE visible
31 Oct ? 03:55:17 18° ESE 03:55:17 18° ESE 03:57:04 10° ESE visible
31 Oct ? 05:37:50 29° SSW 05:39:02 31° SSW 05:44:16 10° SE visible
31 Oct ? 07:22:25 10° WSW 07:26:15 17° SSW 07:29:45 10° S visible
